226 East Rhapsody Drive, San Antonio, Texas 78216 USA
Tel: +1-210-979-9536 Fax: +1-210-979-9560

Email This Page
Post this web page to your facebook account

FAA Approved Capability List

To find a specific word on this list please press “Ctrl“+”F” or “F3” for Windows and “Cmd“+”F” for Mac.

Manufacturer Name Manufacture Part Number / Model Nomenclature Date of Insertion
1 SAFT 016726-000/VO23KH CELL 2/2/2010
2 SAFT 015602-000/VP400KH CELL 2/2/2010
3 SAFT 015698-000/VP230KH CELL 2/2/2010
4 SAFT 015723-000/VP160KH CELL 2/2/2010
5 SAFT 016650-000/VO40KH CELL 2/2/2010
6 SAFT 019858-000/VHP430KH-3 CELL 2/2/2010
7 SAFT 019859-000/VHP370KA-3 CELL 2/2/2010
8 SAFT 021103-000/VHP270KH-3 CELL 2/2/2010
9 SAFT 023484-000/VHP170KH-3 CELL 2/2/2010
10 SAFT 023413-000/CVH400KA CELL 2/2/2010
11 SAFT 024187-000/CVK420KA CELL 2/2/2010
12 SAFT 024257-000/CVH531KA CELL 2/2/2010
13 SAFT 023065-000/VHP450KH-1 CELL 2/2/2010
14 SAFT 023412-000/CVH250KA CELL 2/2/2010
15 SAFT 023456-000/CVH530KA CELL 2/2/2010
16 SAFT 019872-000/KO7.5KH CELL 2/2/2010
17 SAFT 018910-000/VP120KHB CELL 2/2/2010
18 SAFT 018859-000/VP400KH-AC CELL 2/2/2010
19 SAFT 018422-000/VP510KA CELL 2/2/2010
20 SAFT 017496-000/VP170KH CELL 2/2/2010
21 SAFT 018520-000/VHP450KA-1 CELL 2/2/2010
22 SAFT 021930-000/43BO50AC01-2 CELL 2/2/2010
23 SAFT 021903-000/43BO34AC14-2 CELL 2/2/2010
24 SAFT 018911-000/VP200KHB CELL 2/2/2010
25 SAFT 016581-000/VP230KHB CELL 2/2/2010
26 SAFT 018893-000/VP400KH-AC CELL 2/2/2010
27 SAFT 021684-000/VP340KA CELL 2/2/2010
28 SAFT 023504-000/CVH400KA-AC CELL 2/2/2010
29 SAFT 025852-000/CVH170KA CELL 2/2/2010
30 SAFT 025853-000/CVH430KA CELL 2/2/2010
31 SAFT 018520-000/VHP450KA-1 CELL 2/2/2010
32 SAFT 016833-000/23180 BATTERY 2/2/2010
33 SAFT 016592-000/4071 BATTERY 2/2/2010
34 SAFT 015580-000/4076 BATTERY 2/2/2010
35 SAFT 015680-000/2376 BATTERY 2/2/2010
36 SAFT 015700-000/1656 BATTERY 2/2/2010
37 SAFT 016585-000/23176 BATTERY 2/2/2010
38 SAFT 018100-000/4071-1 BATTERY 2/2/2010
39 SAFT 017490-000/2376-1 BATTERY 2/2/2010
40 SAFT 016987-000/4076-1 BATTERY 2/2/2010
41 SAFT 016392-000/40176-7 BATTERY 2/2/2010
42 SAFT 017445-000/4076-3 BATTERY 2/2/2010
43 SAFT 017750-000/4076-5 BATTERY 2/2/2010
44 SAFT 019513-000/4071-2 BATTERY 2/2/2010
45 SAFT 019438-000/2376-5 BATTERY 2/2/2010
46 SAFT 017692-000/4076-9 BATTERY 2/2/2010
47 SAFT 024770-000/1658 BATTERY 2/2/2010
48 SAFT 018718-000/4078 BATTERY 2/2/2010
49 SAFT 021193-000/1656-6 BATTERY 2/2/2010
50 SAFT 017702-000/4076-10 BATTERY 2/2/2010
51 SAFT 018804-000/2376-4 BATTERY 2/2/2010
52 SAFT 018090-000/16156-1 BATTERY 2/2/2010
53 SAFT 023670-000/40678-2 BATTERY 2/2/2010
54 SAFT 024555-000/4076-15 BATTERY 2/2/2010
55 SAFT 024147-000/539CH1 BATTERY 2/2/2010
56 SAFT 023515-000/4076-11 BATTERY 2/2/2010
57 SAFT 019500-000/4076-12 BATTERY 2/2/2010
58 SAFT 023320-000/20126-2 BATTERY 2/2/2010
59 SAFT 023322-000/4076-13 BATTERY 2/2/2010
60 SAFT 021904-000/43BO34LB03 BATTERY 2/2/2010
61 SAFT 021932-000/43BO50LB01 BATTERY 2/2/2010
62 SAFT 020412-000/401176-9 BATTERY 2/2/2010
63 SAFT 023510-000/16256-3 BATTERY 2/2/2010
64 SAFT 023525-000/23576-2 BATTERY 2/2/2010
65 SAFT 024637-000/1756-3 BATTERY 2/2/2010
66 SAFT 020413-000/12277-2 BATTERY 2/2/2010
67 SAFT 015920-000/40176-4 BATTERY 2/2/2010
68 SAFT 016362-000/23186 BATTERY 2/2/2010
69 SAFT 017230-000/16156 BATTERY 2/2/2010
70 SAFT 018180-000/40676 BATTERY 2/2/2010
71 SAFT 018232-000/1277 BATTERY 2/2/2010
72 SAFT 018409-000/40876 BATTERY 2/2/2010
73 SAFT 018465-000/2371-5 BATTERY 2/2/2010
74 SAFT 018482-000/2376-3 BATTERY 2/2/2010
75 SAFT 018515-000/40876-10 BATTERY 2/2/2010
76 SAFT 020678-000/4078-6 BATTERY 2/2/2010
77 SAFT 021937-000/4078-9 BATTERY 2/2/2010
78 SAFT 022019-000/4078-10 BATTERY 2/2/2010
79 SAFT 022259-000/4078-2 BATTERY 2/2/2010
80 SAFT 023495-000/23676-1 BATTERY 2/2/2010
81 SAFT 023498-000/23676-2 BATTERY 2/2/2010
82 SAFT 023663-000/40576-14 BATTERY 2/2/2010
83 SAFT 023808-000/1756-2 BATTERY 2/2/2010
84 SAFT 024797-000/5347CH1 BATTERY 2/2/2010
85 SAFT 024809-000/4037CH BATTERY 2/2/2010
86 SAFT 024904-000/4417CH14 BATTERY 2/2/2010
87 SAFT 024947-000/407CH-9 BATTERY 2/2/2010
88 SAFT 024976-000/4079-10 BATTERY 2/2/2010
89 SAFT 025008-000/40178-26 BATTERY 2/2/2010
90 SAFT 025255-000/176CH3 BATTERY 2/2/2010
91 SAFT 025271-000/4318CH24 BATTERY 2/2/2010
92 SAFT 025897-000/176CH BATTERY 2/2/2010
93 SAFT 025962-000/539CH2 BATTERY 2/2/2010
94 SAFT 024470-000/27578-2 BATTERY 2/2/2010
95 SAFT 024705-000/5317CH-1 BATTERY 2/2/2010
96 SAFT 024453-000/40178-24 BATTERY 2/2/2010
97 SAFT 023677-000/401076 BATTERY 2/2/2010
98 SAFT 024643-000/4017CH-3 BATTERY 2/2/2010
99 SAFT 023321-000/20126-3 BATTERY 2/2/2010
100 SAFT 019654-000/40253 BATTERY 2/2/2010
101 SAFT 023167-000/4078-14 BATTERY 2/2/2010
102 SAFT 023044-000/4071-3 BATTERY 2/2/2010
103 SAFT 023450-000/40678-4 BATTERY 2/2/2010
104 SAFT 023694-000/4078-19 BATTERY 2/2/2010
105 SAFT 023043-000/2371-4 BATTERY 2/2/2010
106 SAFT 023828-000/2376-10 BATTERY 2/2/2010
107 SAFT 023773-000/2386-1 BATTERY 2/2/2010
108 SAFT 011360-000/GB170 BATTERY 2/2/2010
109 SAFT 023311-000/40576 BATTERY 2/2/2010
110 SAFT 023673-000/40776 BATTERY 2/2/2010
111 SAFT 023470-000/1756 BATTERY 2/2/2010
112 SAFT 018550-000/4579 BATTERY 2/2/2010
113 SAFT 023521-000/23576-1 BATTERY 2/2/2010
114 SAFT 017494-000/2026 BATTERY 2/2/2010
115 SAFT 151CH1 BATTERY 2/2/2010
116 SAFT 151CH2 BATTERY 2/2/2010
117 SAFT 20VR4D BATTERY 2/2/2010
118 SAFT 135687 BATTERY 2/2/2010
119 SAFT 539CH1 BATTERY 2/2/2010
120 SAFT 1201 BATTERY 2/2/2010
121 SAFT 12101 BATTERY 2/2/2010
122 SAFT 1606-1 BATTERY 2/2/2010
123 SAFT 1656-1 BATTERY 2/2/2010
124 SAFT 1756-1 BATTERY 2/2/2010
125 SAFT 15890-1 BATTERY 2/2/2010
126 SAFT 19VO3KHB BATTERY 2/2/2010
127 SAFT 20VO3KHB BATTERY 2/2/2010
128 SAFT 23491 BATTERY 2/2/2010
129 SAFT 23491-3 BATTERY 2/2/2010
130 SAFT 23175 BATTERY 2/2/2010
131 SAFT 2376 BATTERY 2/2/2010
132 SAFT 4076-23 BATTERY 2/2/2010
133 SAFT 4078-3 BATTERY 2/2/2010
134 SAFT 4078-24 BATTERY 2/2/2010
135 SAFT 017125-000 TEMP SENSOR 2/2/2010
136 SAFT 016420-000 TEMP SENSOR 2/2/2010
137 SAFT 015949-000 TEMP SENSOR 2/2/2010
138 SAFT 019220-000 TEMP SENSOR 2/2/2010
139 SAFT 019437-000 TEMP SENSOR 2/2/2010
140 SAFT 018802-000 TEMP SENSOR 2/2/2010
141 SAFT 023669-000 TEMP SENSOR 2/2/2010
142 SAFT 021564-000 TEMP SENSOR 2/2/2010
143 SAFT 019756-000 TEMP SENSOR 2/2/2010
144 SAFT 023849-000 TEMP SENSOR 2/2/2010
145 SAFT 024314-000 TEMP SENSOR 2/2/2010
146 SAFT 025009-000 TEMP SENSOR 2/2/2010
147 SAFT 023046-000 TEMP SENSOR 2/2/2010
148 SAFT 024634-000 TEMP SENSOR 2/2/2010
149 SAFT 019747-000 TEMP SENSOR 2/2/2010
150 SAFT 024639-000 TEMP SENSOR 2/2/2010
151 SAFT 019422-000 TEMP SENSOR 2/2/2010
152 SAFT 018740-000 TEMP SENSOR 2/2/2010
153 SAFT 019504-000 TEMP SENSOR 2/2/2010
154 SAFT 022036-000 TEMP SENSOR 2/2/2010
155 SAFT 019498-000 TEMP SENSOR 2/2/2010
156 SAFT 021613-000 TEMP SENSOR 2/2/2010
157 SAFT 024979-000 TEMP SENSOR 2/2/2010
158 SAFT 024558-000 TEMP SENSOR 2/2/2010
159 SAFT 024119-000 TEMP SENSOR 2/2/2010
160 SAFT 024117-000 TEMP SENSOR 2/2/2010
161 SAFT 023965-000 TEMP SENSOR 2/2/2010
162 SAFT 023850-000 TEMP SENSOR 2/2/2010
163 SAFT 023451-000 TEMP SENSOR 2/2/2010
164 SAFT 022836-000 TEMP SENSOR 2/2/2010
165 SAFT 021988-000 TEMP SENSOR 2/2/2010
166 SAFT 021936-000 TEMP SENSOR 2/2/2010
167 SAFT 020689-000 TEMP SENSOR 2/2/2010
168 SAFT 019787-000 TEMP SENSOR 2/2/2010
169 SAFT 019640-000 TEMP SENSOR 2/2/2010
170 SAFT 019384-000 TEMP SENSOR 2/2/2010
171 SAFT 018932-000 TEMP SENSOR 2/2/2010
172 SAFT 018931-000 TEMP SENSOR 2/2/2010
173 SAFT 018484-000 TEMP SENSOR 2/2/2010
174 SAFT 017694-000 TEMP SENSOR 2/2/2010
175 SAFT 017446-000 TEMP SENSOR 2/2/2010
176 SAFT 016076-000 TEMP SENSOR 2/2/2010
177 SAFT 023525-000 TEMP SENSOR 2/2/2010
178 MARATHON 38448-002/10-S103 CELL 2/2/2010
179 MARATHON 38451-002/10-S113 CELL 2/2/2010
180 MARATHON 27177-001/20-S102 CELL 2/2/2010
181 MARATHON 39148-001/20-S104 CELL 2/2/2010
182 MARATHON 37815-001/20-S106 CELL 2/2/2010
183 MARATHON 37194-004/20-S113 CELL 2/2/2010
184 MARATHON 38451-004/20-S113 CELL 2/2/2010
185 MARATHON 39411-001/21-S106 CELL 2/2/2010
186 MARATHON 39411-003/21-S106 CELL 2/2/2010
187 MARATHON 39319-001/2-S102 CELL 2/2/2010
188 MARATHON 39319-002/2-S102 CELL 2/2/2010
189 MARATHON 38235-001/3-S102 CELL 2/2/2010
190 MARATHON 38489-001/3-S113 CELL 2/2/2010
191 MARATHON 38861-001/42-S103 CELL 2/2/2010
192 MARATHON 39432-002/4-S113 CELL 2/2/2010
193 MARATHON 38518-001/5-S104 CELL 2/2/2010
194 MARATHON 37194-001/5-S113 CELL 2/2/2010
195 MARATHON 38451-001/5-S113 CELL 2/2/2010
196 MARATHON 42060-001/5-S113 CELL 2/2/2010
197 MARATHON 38924-025/FW104 CELL 2/2/2010
198 MARATHON 38925-002/GR104 CELL 2/2/2010
199 MARATHON 39415-001/GR104 CELL 2/2/2010
200 MARATHON 38925-003/GR113 CELL 2/2/2010
201 MARATHON 25503-023/S101 CELL 2/2/2010
202 MARATHON 38924-001/S101 CELL 2/2/2010
203 MARATHON 25503-010/S102 CELL 2/2/2010
204 MARATHON 25503-032/S102 CELL 2/2/2010
205 MARATHON 38918-002/S102 CELL 2/2/2010
206 MARATHON 42216-001/S102 CELL 2/2/2010
207 MARATHON 45001-001/S102 CELL 2/2/2010
208 MARATHON 25503-025/S103 CELL 2/2/2010
209 MARATHON 38922-004/S103 CELL 2/2/2010
210 MARATHON 38924-004/S103T CELL 2/2/2010
211 MARATHON 39266-001/S103T CELL 2/2/2010
212 MARATHON 25503-014/S104 CELL 2/2/2010
213 MARATHON 39129-001/S104 CELL 2/2/2010
214 MARATHON 38918-007/S106 CELL 2/2/2010
215 MARATHON 38931-002/S106 CELL 2/2/2010
216 MARATHON 39161-001/S106 CELL 2/2/2010
217 MARATHON 25503-016/S106 CELL 2/2/2010
218 MARATHON 38925-004/S113 CELL 2/2/2010
219 MARATHON 38955-001/S113 CELL 2/2/2010
220 MARATHON 38925-001/SR113 CELL 2/2/2010
221 MARATHON 42217-002/BP-95 ASSY CELL 2/2/2010
222 MARATHON 30030-001/19-10H120 BATTERY 2/2/2010
223 MARATHON 19205-001/203H120 BATTERY 2/2/2010
224 MARATHON 32364-001/7-75M3120 BATTERY 2/2/2010
225 MARATHON 29486-001/ATCA-21H BATTERY 2/2/2010
226 MARATHON 31169-001ATSP-280 BATTERY 2/2/2010
227 MARATHON 30978-002/ATSP-44 BATTERY 2/2/2010
228 MARATHON 32348-001/ATSP-900L-1 BATTERY 2/2/2010
229 MARATHON 29147-006/BA02-05 BATTERY 2/2/2010
230 MARATHON 29094-002/BTCA-5-20 BATTERY 2/2/2010
231 MARATHON 30250-001/BTCA-9-20A BATTERY 2/2/2010
232 MARATHON 29360-002/BTMA-5-20 BATTERY 2/2/2010
233 MARATHON 31346-001/BTSP-179 BATTERY 2/2/2010
234 MARATHON 30441-001/BTSP-400 BATTERY 2/2/2010
235 MARATHON 32248-001/BTSP-4445L BATTERY 2/2/2010
236 MARATHON 23661-001/CA-101N BATTERY 2/2/2010
237 MARATHON 27662-021/CA-103 BATTERY 2/2/2010
238 MARATHON 27518-001/CA-125 BATTERY 2/2/2010
239 MARATHON 27518-002/CA-125-20 BATTERY 2/2/2010
240 MARATHON 30390-001/CA-126 BATTERY 2/2/2010
241 MARATHON 28656-002/CA-154-1 BATTERY 2/2/2010
242 MARATHON 28695-001/CA-154-2 BATTERY 2/2/2010
243 MARATHON 29264-001/CA-154-3A BATTERY 2/2/2010
244 MARATHON 28695-004/CA-154-4 BATTERY 2/2/2010
245 MARATHON 29449-001/CA-154-7 BATTERY 2/2/2010
246 MARATHON 27288-001/CA-16N BATTERY 2/2/2010
247 MARATHON 29365-01C/CA1700 BATTERY 2/2/2010
248 MARATHON 30450-001/CA-170A BATTERY 2/2/2010
249 MARATHON 27990-001/CA-20H BATTERY 2/2/2010
250 MARATHON 29341-001/CA-20H-20 BATTERY 2/2/2010
251 MARATHON 27515-002/CA-21H-1 BATTERY 2/2/2010
252 MARATHON 29236-001/CA-21H-20 BATTERY 2/2/2010
253 MARATHON 28111-004/CA-27-20C BATTERY 2/2/2010
254 MARATHON 29490-001/CA-376 BATTERY 2/2/2010
255 MARATHON 23660-001/CA-51N BATTERY 2/2/2010
256 MARATHON 28002-001/CA-54-1 BATTERY 2/2/2010
257 MARATHON 28002-002/CA-54-2 BATTERY 2/2/2010
258 MARATHON 27826-002/CA-54-3 BATTERY 2/2/2010
259 MARATHON 27826-02C/CA-54-3C BATTERY 2/2/2010
260 MARATHON 25582-006/CA-727-20CR BATTERY 2/2/2010
261 MARATHON 24382-019/CA-9 BATTERY 2/2/2010
262 MARATHON 31517-002/CTCA-21H-1 BATTERY 2/2/2010
263 MARATHON 31995-001/CTSP-280 BATTERY 2/2/2010
264 MARATHON 31995-002/CTSP-280-1 BATTERY 2/2/2010
265 MARATHON 31519-001/CTSP-400 BATTERY 2/2/2010
266 MARATHON 31879-001/DTSP400L BATTERY 2/2/2010
267 MARATHON 31055-001/GP-180 BATTERY 2/2/2010
268 MARATHON 30461-01C/KSP-400 BATTERY 2/2/2010
269 MARATHON 31018-001/KSP-400L BATTERY 2/2/2010
270 MARATHON 32752-001/M3-170AL BATTERY 2/2/2010
271 MARATHON 32479-001/M3-1700L BATTERY 2/2/2010
272 MARATHON 31918-003/M3-1760L-1 BATTERY 2/2/2010
273 MARATHON 33082-001/M3-25-1 BATTERY 2/2/2010
274 MARATHON 32663-001/M3-44-1 BATTERY 2/2/2010
275 MARATHON 32890-001/M3-44-15 BATTERY 2/2/2010
276 MARATHON 32824-001/M3-44-7 BATTERY 2/2/2010
277 MARATHON 32845-001/M3-44-8 BATTERY 2/2/2010
278 MARATHON 32848-001/M3-44-9 BATTERY 2/2/2010
279 MARATHON 33204-001/M3-44-22 BATTERY 2/2/2010
280 MARATHON 31006-004/M3-460L-1 BATTERY 2/2/2010
281 MARATHON 31006-006/M3-460L-1A BATTERY 2/2/2010
282 MARATHON 32536-001/M3-54-1 BATTERY 2/2/2010
283 MARATHON 32955-002/M3X-23-1 BATTERY 2/2/2010
284 MARATHON 33183-001/M3X-54-1 BATTERY 2/2/2010
285 MARATHON 25696-001/MA-11 BATTERY 2/2/2010
286 MARATHON 18241-001/MA-300 BATTERY 2/2/2010
287 MARATHON 24535-010/MA-5 BATTERY 2/2/2010
288 MARATHON 27475-001/MA-510 BATTERY 2/2/2010
289 MARATHON 24535-020/MA-5-20 BATTERY 2/2/2010
290 MARATHON 32421-001/MA-5C BATTERY 2/2/2010
291 MARATHON 24382-024/MA9 BATTERY 2/2/2010
292 MARATHON 31521-001/PTMA-5-20 BATTERY 2/2/2010
293 MARATHON 31406-001/PTSP-400 BATTERY 2/2/2010
294 MARATHON 31406-002/PTSP-400-1 BATTERY 2/2/2010
295 MARATHON 30475-002/SP-138 BATTERY 2/2/2010
296 MARATHON 30135-001/SP1700 BATTERY 2/2/2010
297 MARATHON 30554-01C/SP-170A BATTERY 2/2/2010
298 MARATHON 32007-001/SP170AL BATTERY 2/2/2010
299 MARATHON 31305-001/SP-178 BATTERY 2/2/2010
300 MARATHON 31201-001/SP276 BATTERY 2/2/2010
301 MARATHON 30954-001/SP-280 BATTERY 2/2/2010
302 MARATHON 30596-001/SP-376 BATTERY 2/2/2010
303 MARATHON 31999-001/SP-376L BATTERY 2/2/2010
304 MARATHON 30126-001/SP-400 BATTERY 2/2/2010
305 MARATHON 30126-002/SP-400L BATTERY 2/2/2010
306 MARATHON 30874-001/SP-747 BATTERY 2/2/2010
307 MARATHON 30248-001/SP-900 BATTERY 2/2/2010
308 MARATHON 30132-001/SP-910 BATTERY 2/2/2010
309 MARATHON 30052-001/STMA-5-20 BATTERY 2/2/2010
310 MARATHON 30519-001/STMA-9 BATTERY 2/2/2010
311 MARATHON 30247-001/STSP-400 BATTERY 2/2/2010
312 MARATHON 30408-001/TCA-1735 BATTERY 2/2/2010
313 MARATHON 31718-002/TCA-1742 BATTERY 2/2/2010
314 MARATHON 30453-001/TCA-1752 BATTERY 2/2/2010
315 MARATHON 30695-001/TCA-1753 BATTERY 2/2/2010
316 MARATHON 32819-001/TCA-2492L BATTERY 2/2/2010
317 MARATHON 31433-001/TCA-52 BATTERY 2/2/2010
318 MARATHON 29017-002/TCA-5-20-1 BATTERY 2/2/2010
319 MARATHON 29017-003/TCA-5-20-1C BATTERY 2/2/2010
320 MARATHON 32794-001/TM3-44-4 BATTERY 2/2/2010
321 MARATHON 30703-001/TMA-5-20 BATTERY 2/2/2010
322 MARATHON 30703-002/TMA-5-20C BATTERY 2/2/2010
323 MARATHON 31871-001/TSP-1722 BATTERY 2/2/2010
324 MARATHON 32570-001/TSP-1727 BATTERY 2/2/2010
325 MARATHON 32176-001/TSP-1728 BATTERY 2/2/2010
326 MARATHON 30402-001/TSP-1735 BATTERY 2/2/2010
327 MARATHON 30402-002/TSP-1735L BATTERY 2/2/2010
328 MARATHON 31718-001/TSP-1742 BATTERY 2/2/2010
329 MARATHON 30695-002/TSP-1753 BATTERY 2/2/2010
330 MARATHON 30949-001/TSP-1755 BATTERY 2/2/2010
331 MARATHON 31323-001/TSP-1757 BATTERY 2/2/2010
332 MARATHON 31918-001/TSP-1760L BATTERY 2/2/2010
333 MARATHON 32428-001/TCA-1892L BATTERY 2/2/2010
334 MARATHON 30986-001/TSP-280 BATTERY 2/2/2010
335 MARATHON 31923-002/TSP-281 BATTERY 2/2/2010
336 MARATHON 31908-001/TSP-283 BATTERY 2/2/2010
337 MARATHON 31560-001/TSP-400WB BATTERY 2/2/2010
338 MARATHON 30994-001/TSP-410 BATTERY 2/2/2010
339 MARATHON 31921-002/TSP-414 BATTERY 2/2/2010
340 MARATHON 31233-001/TSP-434 BATTERY 2/2/2010
341 MARATHON 30377-001/TSP-440 BATTERY 2/2/2010
342 MARATHON 32236-001/TSP-4412 BATTERY 2/2/2010
343 MARATHON 31714-001/TSP-442 BATTERY 2/2/2010
344 MARATHON 32324-002/TSP-44204B BATTERY 2/2/2010
345 MARATHON 32043-001/TSP-4460 BATTERY 2/2/2010
346 MARATHON 32669-001/TSP-46-1 BATTERY 2/2/2010
347 MARATHON 32172-001/TSP-467L BATTERY 2/2/2010
348 MARATHON 31258-002/TSP-900AT BATTERY 2/2/2010
349 MARATHON 31455-001/TSP -9117A BATTERY 2/2/2010
350 MARATHON 31455-002/TSP-9117B BATTERY 2/2/2010
351 MARATHON 32192-001/TTMA-5-20C BATTERY 2/2/2010
352 MARATHON 31006-002/UTSP-400 BATTERY 2/2/2010
353 MARATHON 32855-001/M3-17-2 BATTERY 2/2/2010
354 MARATHON 32766-001/M3-1753 BATTERY 2/2/2010
355 MARATHON 32761-001/M3-1755 BATTERY 2/2/2010
356 MARATHON 32857-001/M3-44-11 BATTERY 2/2/2010
357 MARATHON 28900-003/ TSP-400-1 TEMP SENSOR 2/2/2010
358 MARATHON 29230-004/ BA-02-05 TEMP SENSOR 2/2/2010
359 MARATHON 29230-005/BB716/A TEMP SENSOR 2/2/2010
360 MARATHON 29432-018/TSP-9117A TEMP SENSOR 2/2/2010
361 MARATHON 29565-002 TEMP SENSOR 2/2/2010
362 MARATHON 29630-001 TEMP SENSOR 2/2/2010
363 MARATHON 29783-003/ATCA-400 TEMP SENSOR 2/2/2010
364 MARATHON 29783-004 TEMP SENSOR 2/2/2010
365 MARATHON 30937-001/SP747 TEMP SENSOR 2/2/2010
366 MARATHON 31374-001/ATSP-280 TEMP SENSOR 2/2/2010
367 MARATHON 31581-001/PTMA-5-20 TEMP SENSOR 2/2/2010
368 MARATHON 31581-002/PTSP-400 TEMP SENSOR 2/2/2010
369 MARATHON 31628-001/ TSP-400WB TEMP SENSOR 2/2/2010
370 MARATHON 31655-002/UTSP-40 TEMP SENSOR 2/2/2010
371 MARATHON 31851-001/TCA-52 TEMP SENSOR 2/2/2010
372 MARATHON 32567-001/7-75M TEMP SENSOR 2/2/2010
373 MARATHON 22378-001/3H120 CELL 2/2/2010
374 MARATHON 29150-002/5H120L/C CELL 2/2/2010
375 MARATHON 19804-08C/5H120C CELL 2/2/2010
376 MARATHON 19804-008/5H120 CELL 2/2/2010
377 MARATHON 19804-014/5H120 CELL 2/2/2010
378 MARATHON 29846-01C/10HE120 CELL 2/2/2010
379 MARATHON 29846-02C/10HE120 CELL 2/2/2010
380 MARATHON 25468-06C/10H120C CELL 2/2/2010
381 MARATHON 25468-03C/10H120C CELL 2/2/2010
382 MARATHON 19334-003/10H120 CELL 2/2/2010
383 MARATHON 25468-001/10H120 CELL 2/2/2010
384 MARATHON 25468-003/10H120 CELL 2/2/2010
385 MARATHON 24805-04C/12M220C CELL 2/2/2010
386 MARATHON 24805-002/12M220 CELL 2/2/2010
387 MARATHON 24805-10C/12H120C CELL 2/2/2010
388 MARATHON 24941-005/15M220 CELL 2/2/2010
389 MARATHON 30090-01C/17SP100 CELL 2/2/2010
390 MARATHON 32769-001/17M3100 CELL 2/2/2010
391 MARATHON 29295-03C/17H100 CELL 2/2/2010
392 MARATHON 29295-02C/17H100 CELL 2/2/2010
393 MARATHON 31275-02C/18H120C CELL 2/2/2010
394 MARATHON 31111-01C/20SPE100 CELL 2/2/2010
395 MARATHON 28087-001/20H120 CELL 2/2/2010
396 MARATHON 30102-01C/24SP100 CELL 2/2/2010
397 MARATHON 30102-02C/24SP100 CELL 2/2/2010
398 MARATHON 30102-04C/24ME220C CELL 2/2/2010
399 MARATHON 28033-01C/24M220CR CELL 2/2/2010
400 MARATHON 16962-07C/24H120 CELL 2/2/2010
401 MARATHON 16962-009/24H120 CELL 2/2/2010
402 MARATHON 16962-014/24H120 CELL 2/2/2010
403 MARATHON 16962-14C/24H120 CELL 2/2/2010
404 MARATHON 16962-31C/24H100 CELL 2/2/2010
405 MARATHON 16962-26C/25M3120 CELL 2/2/2010
406 MARATHON 32688-002/25M3100 CELL 2/2/2010
407 MARATHON 32957-001/28SP100 CELL 2/2/2010
408 MARATHON 30922-02C/36H120 CELL 2/2/2010
409 MARATHON 18191-011/36H120 CELL 2/2/2010
410 MARATHON 18191-19C/36H120 CELL 2/2/2010
411 MARATHON 18191-023/36H120 CELL 2/2/2010
412 MARATHON 18191-25C/36H120 CELL 2/2/2010
413 MARATHON 18191-10C/38SP100 CELL 2/2/2010
414 MARATHON 30925-01C/38SP100 CELL 2/2/2010
415 MARATHON 30181-02C/38SP100 CELL 2/2/2010
416 MARATHON 30181-01C/38H110 CELL 2/2/2010
417 MARATHON 30841-01C/40SP100L CELL 2/2/2010
418 MARATHON 30114-07C/40SP100 CELL 2/2/2010
419 MARATHON 30114-01C/40SP100 CELL 2/2/2010
420 MARATHON 31004-04C/44SP100 CELL 2/2/2010
421 MARATHON 32637-001/44M3100 CELL 2/2/2010
422 MARATHON 32637-002/44M3120 CELL 2/2/2010
423 MARATHON 32637-003/44M3120ST CELL 2/2/2010
424 MARATHON 32696-001/46SPE100 CELL 2/2/2010
425 MARATHON 32486-002/52H120C CELL 2/2/2010
426 MARATHON 32957-001/23M3X100 CELL 2/2/2010
427 MARATHON 32966-001/54M3120 CELL 2/2/2010
428 MARATHON 33185-001/54M3X120 CELL 2/2/2010
429 MARATHON 32495-002/75M3120 CELL 2/2/2010
430 MARATHON BP9 POWER SUPPLY 2/2/2010
431 MARATHON 27826-002/CA-54-3 BATTERY 2/2/2010
432 MARATHON 30874-002/SP-747 BATTERY 2/2/2010
433 MARATHON 39563-001/18-S104 BATTERY 2/2/2010
434 ACME / URDC 154BS101-1/AMPS2000 POWER SUPPLY 2/2/2010
435 ACME / URDC 154BS101-2/AMPS2000 POWER SUPPLY 2/2/2010
436 ACME / URDC 196BS101-1/AMPS2000A POWER SUPPLY 2/2/2010
437 ACME / URDC 171BS101 POWER SUPPLY 2/2/2010
438 AERO DESIGN AD-3214-30 POWER SUPPLY 2/2/2010
439 BELL INDUSTRIES 9008-3 POWER SUPPLY 2/2/2010
440 BELL INDUSTRIES 9008-4 POWER SUPPLY 2/2/2010
441 BELL INDUSTRIES 9008-5 POWER SUPPLY 2/2/2010
442 BF GOODRICH PS-801 POWER SUPPLY 2/2/2010
443 BF GOODRICH PS-800 POWER SUPPLY 2/2/2010
444 GOODRICH 87-5106-2/AIRPAK65-2 POWER SUPPLY 2/2/2010
445 CASTLEBERRY INSTRUMENTS EPU28-24XXX POWER SUPPLY 2/2/2010
446 CESSNA 41BO20BA01301 POWER SUPPLY 2/2/2010
447 DIEHL 3214-30 POWER SUPPLY 2/2/2010
448 EAGLE PICHER MAR-18100 BATTERY 2/2/2010
449 ENGINEERED MAGNETICS EMBS139-2 POWER SUPPLY 2/2/2010
450 GRIMES 10-0067-7 POWER SUPPLY 2/2/2010
451 GRIMES 10-0067-9 POWER SUPPLY 2/2/2010
452 GRIMES 30-0418-1A POWER SUPPLY 2/2/2010
453 GRIMES 60-0304-31 POWER SUPPLY 2/2/2010
454 GRIMES 60-0304-33 POWER SUPPLY 2/2/2010
455 GRIMES 60-0304-51 POWER SUPPLY 2/2/2010
456 GRIMES 60-1177-5 POWER SUPPLY 2/2/2010
457 GRIMES 60-1177-7 POWER SUPPLY 2/2/2010
458 GRIMES 60-1177-9 POWER SUPPLY 2/2/2010
459 GRIMES 60-1211-1RF POWER SUPPLY 2/2/2010
460 GRIMES 60-1223-1 POWER SUPPLY 2/2/2010
461 GRIMES 60-1321 POWER SUPPLY 2/2/2010
462 GRIMES 60-2502-1 POWER SUPPLY 2/2/2010
463 GRIMES 60-2502-3 POWER SUPPLY 2/2/2010
464 GRIMES 60-2502-5 POWER SUPPLY 2/2/2010
465 GRIMES 60-3550-1 POWER SUPPLY 2/2/2010
466 GRIMES 60-1223-1 POWER SUPPLY 2/2/2010
467 GRIMES 60-1223-3 POWER SUPPLY 2/2/2010
468 GRIMES 60-1223-5 POWER SUPPLY 2/2/2010
469 GRIMES 60-1223-7 POWER SUPPLY 2/2/2010
470 SECURAPLANE 9750W0380-1 BATTERY 2/2/2010
471 IDD AEROSPACE CORP 9005-42 POWER SUPPLY 2/2/2010
472 J.E.T. PS-834 POWER SUPPLY 2/2/2010
473 LITTON 510022-01 POWER SUPPLY 2/2/2010
474 LITTON 510018-01 POWER SUPPLY 2/2/2010
475 LITTON 510014-01 POWER SUPPLY 2/2/2010
476 LITTON 500040-03 POWER SUPPLY 2/2/2010
477 LITTON 500012-01/02 POWER SUPPLY 2/2/2010
478 PAGE C734-01-030 POWER SUPPLY 2/2/2010
479 PAGE D734-02-001 POWER SUPPLY 2/2/2010
480 PAGE D717-01-001 POWER SUPPLY 2/2/2010
481 PAGE D717-02-001 POWER SUPPLY 2/2/2010
482 RADIENT/DERLAN BPS7-3 POWER SUPPLY 2/2/2010
483 SECURAPLANE 100-0201-01/XL246-S POWER SUPPLY 2/2/2010
484 SECURAPLANE 100-0202-01/XL246-A POWER SUPPLY 2/2/2010
485 SECURAPLANE 100-0206-01/XL500/5 POWER SUPPLY 2/2/2010
486 SECURAPLANE 100-0206-03/XL500/H POWER SUPPLY 2/2/2010
487 SECURAPLANE 100-0208-01/XL250/5 POWER SUPPLY 2/2/2010
488 SECURAPLANE 100-0302-01/XL249 POWER SUPPLY 2/2/2010
489 SECURAPLANE 100-032-02/XL249-02 POWER SUPPLY 2/2/2010
490 SECURAPLANE 100-0540-02/XL245-A POWER SUPPLY 2/2/2010
491 SECURAPLANE 100-0540-03/XL245-B POWER SUPPLY 2/2/2010
492 SECURAPLANE 100-0540-04/XL245-C POWER SUPPLY 2/2/2010
493 SECURAPLANE 100-1048-01/XL2411 POWER SUPPLY 2/2/2010
494 SECURAPLANE 100-1074-01/XL243-A POWER SUPPLY 2/2/2010
495 SECURAPLANE 100-1075-01/XL243-B POWER SUPPLY 2/2/2010
496 SECURAPLANE 100-1085-01/SLA-1000 POWER SUPPLY 2/2/2010
497 SECURAPLANE 100-1085-02/SLA-1200 POWER SUPPLY 2/2/2010
498 SECURAPLANE 100-1086-01/SLA2000 POWER SUPPLY 2/2/2010
499 SECURAPLANE 100-2410-02/XL2410-02 POWER SUPPLY 2/2/2010
500 SECURAPLANE 100-2410-04/XL2410-04 POWER SUPPLY 2/2/2010
501 SECURAPLANE 9750W0350-1 BATTERY 2/2/2010
502 SECURAPLANE 9750W0350-5 BATTERY 2/2/2010
503 SECURAPLANE 9750W036 BATTERY 2/2/2010
504 SECURAPLANE 9750W0360-5 BATTERY 2/2/2010
505 SECURAPLANE 9750W0370-1 BATTERY 2/2/2010
506 SECURAPLANE 9750W0370-3 BATTERY 2/2/2010
507 SECURAPLANE 9750W0370-6 BATTERY 2/2/2010
508 SECURAPLANE 9750W0370-7 BATTERY 2/2/2010
509 SECURAPLANE 9750W0370-8 BATTERY 2/2/2010
510 SECURAPLANE 9750W0370-11 BATTERY 2/2/2010
511 SECURAPLANE 9750W0538 BATTERY 2/2/2010
512 SECURAPLANE 9750W0640 BATTERY 2/2/2010
513 SECURAPLANE 9750W0380-1 BATTERY 2/2/2010
514 SECURAPLANE 9750W0370-10 BATTERY 2/2/2010
515 SECURAPLANE 9750W0530 BATTERY 2/2/2010
516 SECURAPLANE 9750W0370 BATTERY 2/2/2010
517 I.D.D. AEROSPACE 9008-3 POWER SUPPLY 2/2/2010
518 I.D.D. AEROSPACE 9008-4 POWER SUPPLY 2/2/2010
519 I.D.D. AEROSPACE 9008-5 POWER SUPPLY 2/2/2010
520 J.E.T. / BF GOODRICH / L3 501-1719-01/PS850A POWER SUPPLY 2/2/2010
521 J.E.T. / BF GOODRICH / L3 501-1719-02/PS-850B POWER SUPPLY 2/2/2010
522 J.E.T. / BF GOODRICH / L3 501-1712-01/PS-855A POWER SUPPLY 2/2/2010
523 J.E.T. / BF GOODRICH / L3 501-1712-02/PS-855B POWER SUPPLY 2/2/2010
524 J.E.T. / BF GOODRICH / L3 501-1712-03/PS-855C POWER SUPPLY 2/2/2010
525 J.E.T. / BF GOODRICH / L3 501-1712-04/PS-855D POWER SUPPLY 2/2/2010
526 J.E.T. / BF GOODRICH / L3 501-1075-01/PS-823A POWER SUPPLY 2/2/2010
527 J.E.T. / BF GOODRICH / L3 501-1075-02/PS-823B POWER SUPPLY 2/2/2010
528 J.E.T. / BF GOODRICH / L3 501-1075-03/PS-823C POWER SUPPLY 2/2/2010
529 J.E.T. / BF GOODRICH / L3 501-1075-04/PS-823D POWER SUPPLY 2/2/2010
530 J.E.T. / BF GOODRICH / L3 501-1075-05/PS-823A/T POWER SUPPLY 2/2/2010
531 J.E.T. / BF GOODRICH / L3 501-1075-06/PS-823B/T POWER SUPPLY 2/2/2010
532 J.E.T. / BF GOODRICH / L3 501-1075-07/PS-823C/T POWER SUPPLY 2/2/2010
533 J.E.T. / BF GOODRICH / L3 501-1075-08/PS823D/T POWER SUPPLY 2/2/2010
534 J.E.T. / BF GOODRICH / L3 501-1075-09/PS-823E POWER SUPPLY 2/2/2010
535 J.E.T. / BF GOODRICH / L3 501-1075-10/PS-823F POWER SUPPLY 2/2/2010
536 J.E.T. / BF GOODRICH / L3 501-1075-11/PS-823G POWER SUPPLY 2/2/2010
537 J.E.T. / BF GOODRICH / L3 501-1075-12/PS-823H POWER SUPPLY 2/2/2010
538 J.E.T. / BF GOODRICH / L3 501-1075-13/PS-823E/T POWER SUPPLY 2/2/2010
539 J.E.T. / BF GOODRICH / L3 501-1075-14/PS-823F/T POWER SUPPLY 2/2/2010
540 J.E.T. / BF GOODRICH / L3 501-1075-15/PS-823G/T POWER SUPPLY 2/2/2010
541 J.E.T. / BF GOODRICH / L3 501-1075-16/PS-823H/T POWER SUPPLY 2/2/2010
542 RADIENT POWER CORP RPS1-B POWER SUPPLY 2/2/2010
543 J.E.T. 501-1228-01/PS-835A POWER SUPPLY 2/2/2010
544 J.E.T. 501-1228-02/PS-835B POWER SUPPLY 2/2/2010
545 J.E.T. 501-1228-03/PS-835C POWER SUPPLY 2/2/2010
546 J.E.T. 501-1228-04/PS-835D POWER SUPPLY 2/2/2010
547 J.E.T. 501-1228-05/PS-835E POWER SUPPLY 2/2/2010
548 J.E.T. 501-1228-06/PS-835F POWER SUPPLY 2/2/2010
549 CONCORDE RG-91 BATTERY 2/2/2010
550 CONCORDE RG-119 BATTERY 2/2/2010
551 CONCORDE RG-203 BATTERY 2/2/2010
552 CONCORDE RG-206 BATTERY 2/2/2010
553 CONCORDE RG-214 BATTERY 2/2/2010
554 CONCORDE RG-222 BATTERY 2/2/2010
555 CONCORDE RG-350 BATTERY 2/2/2010
556 CONCORDE RG-355 BATTERY 2/2/2010
557 CONCORDE RG-407 BATTERY 2/2/2010
558 CONCORDE RG-500 BATTERY 2/2/2010
559 CONCORDE RG-600-1 BATTERY 2/2/2010
560 CONCORDE RG-600-2 BATTERY 2/2/2010
561 CONCORDE RG-CIS40 BATTERY 2/2/2010
562 CONCORDE RG-365B BATTERY 2/2/2010
563 CONCORDE RG-365E BATTERY 2/2/2010
564 CONCORDE RG-441 BATTERY 2/2/2010
565 CONCORDE RG-442 BATTERY 2/2/2010
566 CONCORDE RG-443 BATTERY 2/2/2010
567 CONCORDE RG-445C BATTERY 2/2/2010
568 CONCORDE RG-445E BATTERY 2/2/2010
569 CONCORDE RG-47 BATTERY 2/2/2010
570 CONCORDE RG-49 BATTERY 2/2/2010
571 CONCORDE RG-76 BATTERY 2/2/2010
572 CONCORDE RG-380E/60KS BATTERY 2/2/2010
573 CONCORDE RG380E/60L BATTERY 2/2/2010
574 CONCORDE RG-380E/60LS BATTERY 2/2/2010
575 CONCORDE RG-390E BATTERY 2/2/2010
576 CONCORDE RG-390E/L BATTERY 2/2/2010
577 CONCORDE RG-390E/LS BATTERY 2/2/2010
578 CONCORDE RG-390ES BATTERY 2/2/2010
579 CONCORDE RG-322 BATTERY 2/2/2010
580 CONCORDE RG-365A BATTERY 2/2/2010
581 CONCORDE RG-380E/44KS BATTERY 2/2/2010
582 CONCORDE RG-380E/44L BATTERY 2/2/2010
583 CONCORDE RG-380E/44LS BATTERY 2/2/2010
584 CONCORDE RG-380E/46 BATTERY 2/2/2010
585 CONCORDE RG-380E/46K BATTERY 2/2/2010
586 CONCORDE RG-380E/46KS BATTERY 2/2/2010
587 CONCORDE RG-380E/46L BATTERY 2/2/2010
588 CONCORDE RG-380E-46LS BATTERY 2/2/2010
589 CONCORDE RG380E/60B BATTERY 2/2/2010
590 CONCORDE RG-380E60F BATTERY 2/2/2010
591 CONCORDE RG-380E/60K BATTERY 2/2/2010
592 CONCORDE RG-380E/40B BATTERY 2/2/2010
593 CONCORDE RG-380E/40K BATTERY 2/2/2010
594 CONCORDE RG-380E/40KS BATTERY 2/2/2010
595 CONCORDE RG-380E/40L BATTERY 2/2/2010
596 CONCORDE RG-380E/40LS BATTERY 2/2/2010
597 CONCORDE RG-380E/44 BATTERY 2/2/2010
598 CONCORDE RG-380E/44K BATTERY 2/2/2010
599 CONCORDE RG-120 BATTERY 2/2/2010
600 CONCORDE RG-121-1 BATTERY 2/2/2010
601 CONCORDE RG-121-2 BATTERY 2/2/2010
602 CONCORDE RG-121-3 BATTERY 2/2/2010
603 CONCORDE RG-121-4 BATTERY 2/2/2010
604 CONCORDE RG-122-1 BATTERY 2/2/2010
605 CONCORDE RG-122-2 BATTERY 2/2/2010
606 CONCORDE RG-122-3 BATTERY 2/2/2010
607 CONCORDE RG-122-4 BATTERY 2/2/2010
608 CONCORDE RG-123 BATTERY 2/2/2010
609 CONCORDE RG-123-1 BATTERY 2/2/2010
610 CONCORDE RG-125 BATTERY 2/2/2010
611 CONCORDE RG-126 BATTERY 2/2/2010
612 CONCORDE RG-128-1 BATTERY 2/2/2010
613 CONCORDE RG-128-2 BATTERY 2/2/2010
614 CONCORDE RG-128-3 BATTERY 2/2/2010
615 CONCORDE RG-129 BATTERY 2/2/2010
616 CONCORDE RG-130-1 BATTERY 2/2/2010
617 CONCORDE RG-130-2 BATTERY 2/2/2010
618 CONCORDE RG-131 BATTERY 2/2/2010
619 CONCORDE RG-132 BATTERY 2/2/2010
620 CONCORDE RG-135 BATTERY 2/2/2010
621 CONCORDE RG-150-5 BATTERY 2/2/2010
622 CONCORDE RG-150-6 BATTERY 2/2/2010
623 CONCORDE RG-1835-1 BATTERY 2/2/2010
624 CONCORDE RG-1835-2 BATTERY 2/2/2010
625 CONCORDE RG-28-7 BATTERY 2/2/2010
626 CONCORDE RG-343 BATTERY 2/2/2010
627 CONCORDE RG-385 BATTERY 2/2/2010
628 CONCORDE RG-400E/13 BATTERY 2/2/2010
629 CONCORDE RG-412-1 BATTERY 2/2/2010
630 CONCORDE RG-412-2 BATTERY 2/2/2010
631 CONCORDE RG-45 BATTERY 2/2/2010
632 CONCORDE RG-46 BATTERY 2/2/2010
633 CONCORDE D8565/1-2 BATTERY 2/2/2010
634 CONCORDE D8565/3-3 BATTERY 2/2/2010
635 CONCORDE D8565/4-1 BATTERY 2/2/2010
636 CONCORDE D8565/5-1 BATTERY 2/2/2010
637 CONCORDE D8565/5-2 BATTERY 2/2/2010
638 CONCORDE D8565/6-1 BATTERY 2/2/2010
639 CONCORDE D8565/7-1 BATTERY 2/2/2010
640 CONCORDE D8565/7-2 BATTERY 2/2/2010
641 CONCORDE D8565/8-1 BATTERY 2/2/2010
642 CONCORDE D8565/9-1 BATTERY 2/2/2010
643 CONCORDE D8565/11-1 BATTERY 2/2/2010
644 CONCORDE D8565/13-1 BATTERY 2/2/2010
645 CONCORDE D8565/14-1 BATTERY 2/2/2010
646 CONCORDE D8565/15-1 BATTERY 2/2/2010
647 CONCORDE D8565/18-1 BATTERY 2/2/2010
648 CONCORDE D8565/17-1 BATTERY 2/2/2010
649 CONCORDE B1B BATTERY 2/2/2010
650 CONCORDE M83769/1-1 BATTERY 2/2/2010
651 CONCORDE M83769/2-1 BATTERY 2/2/2010
652 CONCORDE M83769/4-1 BATTERY 2/2/2010
653 CONCORDE M83769/5-1 BATTERY 2/2/2010
654 CONCORDE M83769/6-1 BATTERY 2/2/2010
655 GILL 7638-44 BATTERY 2/2/2010
656 GILL 7639-27 BATTERY 2/2/2010
657 GILL 7641-20 BATTERY 2/2/2010
658 GILL G-240 BATTERY 2/2/2010
659 GILL G-241 BATTERY 2/2/2010
660 GILL G-242 BATTERY 2/2/2010
661 GILL G-243 BATTERY 2/2/2010
662 GILL G-244 BATTERY 2/2/2010
663 GILL G-245 BATTERY 2/2/2010
664 GILL G-246 BATTERY 2/2/2010
665 GILL G-247 BATTERY 2/2/2010
666 GILL G-25 BATTERY 2/2/2010
667 GILL G-35 BATTERY 2/2/2010
668 GILL G-35M BATTERY 2/2/2010
669 GILL G-6381C BATTERY 2/2/2010
670 GILL G-6381E BATTERY 2/2/2010
671 GILL G-638C BATTERY 2/2/2010
672 GILL G-638E BATTERY 2/2/2010
673 GILL G-639C BATTERY 2/2/2010
674 GILL G-639E BATTERY 2/2/2010
675 GILL G-640C BATTERY 2/2/2010
676 GILL G-640E BATTERY 2/2/2010
677 GILL G-641 BATTERY 2/2/2010
678 GILL G-88 BATTERY 2/2/2010
679 GILL GE-50C BATTERY 2/2/2010
680 GILL GE-50E BATTERY 2/2/2010
681 GILL GE-51C BATTERY 2/2/2010
682 GILL GE-51E BATTERY 2/2/2010
683 GILL GE-54C BATTERY 2/2/2010
684 GILL GE-54E BATTERY 2/2/2010
685 GILL G-242S BATTERY 2/2/2010
686 GILL G-243S BATTERY 2/2/2010
687 GILL G-250S BATTERY 2/2/2010
688 GILL G-25S BATTERY 2/2/2010
689 GILL G-35S BATTERY 2/2/2010
690 GILL G-6381ES BATTERY 2/2/2010
691 GILL M83769/1-1 BATTERY 2/2/2010
692 GILL M83769/2-1 BATTERY 2/2/2010
693 GILL M83769/3-1 BATTERY 2/2/2010
694 GILL M83769/4-1 BATTERY 2/2/2010
695 GILL M83769/5-1 BATTERY 2/2/2010
696 GILL M83769/6-1 BATTERY 2/2/2010
697 SECURAPLANE 9750B0818 BATTERY 2/2/2010
698 SECURAPLANE 9750R0824 BATTERY 2/2/2010
699 SECURAPLANE 9750D0740 BATTERY 2/2/2010
700 SECURAPLANE 9750W0350 BATTERY 2/2/2010
701 SECURAPLANE 9750W0640 BATTERY 2/2/2010
702 SECURAPLANE 9750W0360 BATTERY 2/2/2010
703 SECURAPLANE 9750W0538 BATTERY 2/2/2010
704 SECURAPLANE 9750W0370 BATTERY 2/2/2010
705 SECURAPLANE 9750W0380 BATTERY 2/2/2010
706 SECURAPLANE XL246-S BATTERY 2/2/2010
707 SECURAPLANE XL249 BATTERY 2/2/2010
708 SECURAPLANE XL246-A BATTERY 2/2/2010
709 SECURAPLANE XL245 BATTERY 2/2/2010
710 SECURAPLANE XL2410 BATTERY 2/2/2010
711 SECURAPLANE XL2411 BATTERY 2/2/2010
712 SECURAPLANE XL243 BATTERY 2/2/2010
713 SECURAPLANE XL244D BATTERY 2/2/2010
714 SECURAPLANE 9750W0350-5 BATTERY 2/2/2010
715 SECURAPLANE 9750W0370-8 BATTERY 2/2/2010
716 SECURAPLANE 9750W0370-10 BATTERY 2/2/2010
717 SECURAPLANE 9750W0370-11 BATTERY 2/2/2010
718 SECURAPLANE 9750W0370-1 BATTERY 2/2/2010
719 SECURAPLANE 9750W0350-1 BATTERY 2/2/2010
720 SECURAPLANE 9750W0370-2 BATTERY 2/2/2010
721 SECURAPLANE 9750W0370-3 BATTERY 2/2/2010
722 SECURAPLANE 9750W0370-4 BATTERY 2/2/2010
723 SECURAPLANE 9750W0370-5 BATTERY 2/2/2010
724 SECURAPLANE 9750W0370-6 BATTERY 2/2/2010
725 SECURAPLANE 9750W0370-7 BATTERY 2/2/2010
726 SECURAPLANE 9750W0370-9 BATTERY 2/2/2010
727 SAFT 409CH2 BATTERY 2/2/2010
728 SAFT 4078-4 BATTERY 2/2/2010
729 SAFT 16556-1 BATTERY 2/2/2010
730 SAFT 1658-1 BATTERY 2/2/2010
731 SAFT 1658-6 BATTERY 2/2/2010
732 SAFT 1708-1 BATTERY 2/2/2010
733 SAFT 1811CH1 BATTERY 2/2/2010
734 SAFT 20108-1 BATTERY 2/2/2010
735 SAFT 20VO23KH BATTERY 2/2/2010
736 SAFT 20VO23KHB BATTERY 2/2/2010
737 SAFT 23150 BATTERY 2/2/2010
738 SAFT 23176-1 BATTERY 2/2/2010
739 SAFT 23176-4 BATTERY 2/2/2010
740 SAFT 23390 BATTERY 2/2/2010
741 SAFT 23396 BATTERY 2/2/2010
742 SAFT 23498-1 BATTERY 2/2/2010
743 SAFT 23578 BATTERY 2/2/2010
744 SAFT 23678-2 BATTERY 2/2/2010
745 SAFT 2371 BATTERY 2/2/2010
746 SAFT 2378-2 BATTERY 2/2/2010
747 SAFT 2506 BATTERY 2/2/2010
748 SAFT 2506A-2 BATTERY 2/2/2010
749 SAFT 2520 BATTERY 2/2/2010
750 SAFT 257CH9 BATTERY 2/2/2010
751 SAFT 26108 BATTERY 2/2/2010
752 SAFT 26108-1 BATTERY 2/2/2010
753 SAFT 26108-2 BATTERY 2/2/2010
754 SAFT 26108-6 BATTERY 2/2/2010
755 SAFT 2708-2 BATTERY 2/2/2010
756 SAFT 27178-2 BATTERY 2/2/2010
757 SAFT 2726CH1 BATTERY 2/2/2010
758 SAFT 27308-1 BATTERY 2/2/2010
759 SAFT 27478 BATTERY 2/2/2010
760 SAFT 2758 BATTERY 2/2/2010
761 SAFT 276CH1 BATTERY 2/2/2010
762 SAFT 2778-1 BATTERY 2/2/2010
763 SAFT 2778-2 BATTERY 2/2/2010
764 SAFT 2778-4 BATTERY 2/2/2010
765 SAFT 2778-7 BATTERY 2/2/2010
766 SAFT 2778-9 BATTERY 2/2/2010
767 SAFT 2778-14 BATTERY 2/2/2010
768 SAFT 3759-2 BATTERY 2/2/2010
769 SAFT 4000A1 BATTERY 2/2/2010
770 SAFT 40108-1 BATTERY 2/2/2010
771 SAFT 40109-1 BATTERY 2/2/2010
772 SAFT 40118 BATTERY 2/2/2010
773 SAFT 40118-1 BATTERY 2/2/2010
774 SAFT 40118-2 BATTERY 2/2/2010
775 SAFT 4017CH3 BATTERY 2/2/2010
776 SAFT 40179 BATTERY 2/2/2010
777 SAFT 40206-2 BATTERY 2/2/2010
778 SAFT 40208-1 BATTERY 2/2/2010
779 SAFT 40208-2 BATTERY 2/2/2010
780 SAFT 40208-5 BATTERY 2/2/2010
781 SAFT 40208-7 BATTERY 2/2/2010
782 SAFT 4025CH1 BATTERY 2/2/2010
783 SAFT 40308-1 BATTERY 2/2/2010
784 SAFT 40308-5 BATTERY 2/2/2010
785 SAFT 40408 BATTERY 2/2/2010
786 SAFT 4050A1 BATTERY 2/2/2010
787 SAFT 4059 BATTERY 2/2/2010
788 SAFT 405CH BATTERY 2/2/2010
789 SAFT 405CH23 BATTERY 2/2/2010
790 SAFT 40678-2 BATTERY 2/2/2010
791 SAFT 4077 BATTERY 2/2/2010
792 SAFT 4078-11 BATTERY 2/2/2010
793 SAFT 4078-12 BATTERY 2/2/2010
794 SAFT 4078-17 BATTERY 2/2/2010
795 SAFT 4078-22 BATTERY 2/2/2010
796 SAFT 4078-7 BATTERY 2/2/2010
797 SAFT 4078-8 BATTERY 2/2/2010
798 SAFT 4079-5 BATTERY 2/2/2010
799 SAFT 427CK-1 BATTERY 2/2/2010
800 SAFT 43BO34RB30 BATTERY 2/2/2010
801 SAFT 43BO50KB01 BATTERY 2/2/2010
802 SAFT 43BO50KB02 BATTERY 2/2/2010
803 SAFT 441CH14 BATTERY 2/2/2010
804 SAFT 441CH1 BATTERY 2/2/2010
805 SAFT 4608-1 BATTERY 2/2/2010
806 SAFT 447CH7 BATTERY 2/2/2010
807 SAFT 505CH BATTERY 2/2/2010
808 SAFT 505CH2 BATTERY 2/2/2010
809 SAFT 5103 BATTERY 2/2/2010
810 SAFT 5317CH-1 BATTERY 2/2/2010
811 SAFT 539CH-1 BATTERY 2/2/2010
812 SAFT 5347CH-1 BATTERY 2/2/2010
813 SAFT 605A BATTERY 2/2/2010
814 SAFT 605B BATTERY 2/2/2010
815 SAFT 612 BATTERY 2/2/2010
816 SAFT A4076-21 BATTERY 2/2/2010
817 SAFT A278CH2 BATTERY 2/2/2010
818 SAFT A5025CH1 BATTERY 2/2/2010
819 SAFT A530CH1 BATTERY 2/2/2010
820 SAFT 176CH6 BATTERY 2/2/2010
821 SAFT 438CH2 BATTERY 2/2/2010
822 SAFT 2778 BATTERY 2/2/2010
823 SAFT 40118-4 BATTERY 2/2/2010
824 SAFT 4317CH1 BATTERY 2/2/2010
825 SAFT 605 BATTERY 2/2/2010
826 SAFT 5512CH1 BATTERY 2/2/2010
827 SAFT 40178 BATTERY 2/2/2010
828 SAFT 2376-2 BATTERY 2/2/2010
829 SAFT 616 BATTERY 2/2/2010
830 SAFT 40100-1 BATTERY 2/2/2010
831 SAFT 437CH14 BATTERY 2/2/2010
832 SAFT 276CH10 BATTERY 2/2/2010
833 SAFT 405CH10 BATTERY 2/2/2010
834 SAFT 407CH9 BATTERY 2/2/2010
835 SAFT 4078-10 BATTERY 2/2/2010
836 SAFT 442CH1 BATTERY 2/2/2010
837 SAFT 2506-1 BATTERY 2/2/2010
838 SAFT 4006A-1 BATTERY 2/2/2010
839 SAFT 4000A1-1 BATTERY 2/2/2010
840 SAFT 275CH3 BATTERY 2/2/2010
841 SAFT 447CH1 BATTERY 2/2/2010
842 SAFT 4050A1-1 BATTERY 2/2/2010
843 SAFT 2353-1 BATTERY 2/2/2010
844 SAFT 4608-1 BATTERY 2/2/2010
845 SAFT 4076-17 BATTERY 2/2/2010
846 SAFT 276CH7 BATTERY 2/2/2010
847 SAFT 2778-18 BATTERY 2/2/2010
848 SAFT 40178-21 BATTERY 2/2/2010
849 SAFT 345CD1 BATTERY 2/2/2010
850 SAFT 4078-5 BATTERY 2/2/2010
851 SAFT 4076-3 BATTERY 2/2/2010
852 SAFT 40376 BATTERY 2/2/2010
853 MARATHON 30839-001 / CA139 BATTERY 2/2/2010
854 MARATHON 30475-001 / CA138 BATTERY 2/2/2010
855 MARATHON 27183-001 / CA-13 BATTERY 2/2/2010
856 MARATHON 29463-002 / STCA-420-2 BATTERY 2/2/2010
857 MARATHON 30838-002 / TSP-455-1 BATTERY 2/2/2010
858 MARATHON 24382-012 / CA-4 BATTERY 2/2/2010
859 MARATHON 31006-003 / UTSP-460-L BATTERY 2/2/2010
860 MARATHON 31006-001 / UTSP-460-L BATTERY 2/2/2010
861 MARATHON 33006-001 / 20-60M3X100 BATTERY 2/2/2010
862 MARATHON 29360-001 / BTMA-5 BATTERY 2/2/2010
863 MARATHON 29630-002 / BTMA-5-20 BATTERY 2/2/2010
864 MARATHON 18826-003 / 24M220 BATTERY 2/2/2010
865 MARATHON 24540-007 / CA-7 BATTERY 2/2/2010
866 MARATHON 30997-001 / SP-444L BATTERY 2/2/2010
867 MARATHON 31258-001 / BTSP-900AT BATTERY 2/2/2010
868 MARATHON 29847-002 / CA-176 BATTERY 2/2/2010
869 MARATHON 29248-001 / KTCA-21H-20 BATTERY 2/2/2010
870 MARATHON 29300-001 /CA-9-20A BATTERY 2/2/2010
871 MARATHON 15890-003 /CA-10N BATTERY 2/2/2010
872 MARATHON 19076-002 /CA-31 BATTERY 2/2/2010
873 MARATHON 29206-001 /CA-91-20 BATTERY 2/2/2010
874 MARATHON 27662-002 /CA-103 BATTERY 2/2/2010
875 MARATHON 28684-001 /CA-106 BATTERY 2/2/2010
876 MARATHON 30900-001 /TSP-1754 BATTERY 2/2/2010
877 MARATHON 30696-001 /TCA-1754 BATTERY 2/2/2010
878 MARATHON 30376-001 /TCA-440 BATTERY 2/2/2010
879 MARATHON 29362-001 /TCA-106-3 BATTERY 2/2/2010
880 MARATHON 29094-001 /BTCA-5 BATTERY 2/2/2010
881 MARATHON 32174-001 /TCA-1028 BATTERY 2/2/2010
882 MARATHON 32319-001 /TCA-103C BATTERY 2/2/2010
883 MARATHON 32374-001 /TSP-400X BATTERY 2/2/2010
884 MARATHON 32419-001 /TSP-440CX BATTERY 2/2/2010
885 MARATHON 30665-002 /ATSP-400-2 BATTERY 2/2/2010
886 MARATHON 29097-001 /TCA-106 BATTERY 2/2/2010
887 MARATHON 32472-001 /TSP-1708L BATTERY 2/2/2010
888 MARATHON 32441-002 /TSP-408L-1 BATTERY 2/2/2010
889 MARATHON 30978-001 /ATSP-441 BATTERY 2/2/2010
890 MARATHON 30976-001 /ATCA-441 BATTERY 2/2/2010
891 MARATHON 30242-002 /STCA-930A BATTERY 2/2/2010
892 MARATHON 32871-001 /M3-17-3 BATTERY 2/2/2010
893 MARATHON 31918-002 /TSP-1760L-1 BATTERY 2/2/2010
894 MARATHON 30131-001 /TSP-900A BATTERY 2/2/2010
895 AERO DESIGN AD1656/ 1656 BATTERY 2/2/2010
896 AERO DESIGN AD1656-1/ 1656-1 BATTERY 2/2/2010
897 AERO DESIGN AD1656-6/1656-6 BATTERY 2/2/2010
898 AERO DESIGN AD16156/16156 BATTERY 2/2/2010
899 AERO DESIGN AD16156-1/16156-1 BATTERY 2/2/2010
900 MARATHON 29267-001/ CA-1700 BATTERY 2/2/2010
901 MARATHON 29487-001/ CA-176 BATTERY 2/2/2010
902 MARATHON 29767-001/ CA-900A BATTERY 2/2/2010
903 MARATHON 33082-002/ M3-25-1 BATTERY 2/2/2010
904 MARATHON 30247-002/ STSP-400 BATTERY 2/2/2010
905 MARATHON 33250-001/ M3-44-24 BATTERY 2/2/2010
906 MARATHON 33275-001/ M3-44-25 BATTERY 2/2/2010
907 MARATHON 33033-001/ M3-54-2 BATTERY 2/2/2010
908 MARATHON 31006-005/ M3-460L-2 BATTERY 2/2/2010
909 MARATHON 23729-004/ MA-500H BATTERY 2/2/2010
910 MARATHON 30554-001C/ SP-170A BATTERY 2/2/2010
911 MARATHON 33206-001/ M3-28-1 BATTERY 2/2/2010
912 MARATHON 32391-001/ TSP-4492L BATTERY 2/2/2010
913 MARATHON 30134-001/ SP176 BATTERY 2/2/2010
914 MARATHON 30130-001/ SP-900A BATTERY 2/2/2010
915 MARATHON 30464-001/ STSP-930 BATTERY 2/2/2010
916 MARATHON 28856-001/ TCA-5 BATTERY 2/2/2010
917 MARATHON 28855-001/ TCA-21H-1 BATTERY 2/2/2010
918 MARATHON 29345-001/ TCA-21H-20 BATTERY 2/2/2010
919 MARATHON 29653-001/ BTCA-400 BATTERY 2/2/2010
920 MARATHON 31656-002/ UTSP-440 BATTERY 2/2/2010
921 MARATHON 31009-011/ GTSP-400 BATTERY 2/2/2010
922 MARATHON 30453-001/ TCA-1752 BATTERY 2/2/2010
923 MARATHON 32766-001/ M3-1753 BATTERY 2/2/2010
924 CONCORDE CB-35A BATTERY 2/2/2010
925 CONCORDE RG24-20 BATTERY 2/2/2010
926 CONCORDE RG91 BATTERY 2/2/2010
927 CONCORDE RG35A BATTERY 2/2/2010
928 CONCORDE RG35AXC BATTERY 2/2/2010
929 CONCORDE RG24-15 BATTERY 2/2/2010
930 CONCORDE RG24-16 BATTERY 2/2/2010
931 CONCORDE RG46 BATTERY 2/2/2010
932 CONCORDE RG49 BATTERY 2/2/2010
933 CONCORDE CB24-380E BATTERY 2/2/2010
934 CONCORDE RG125 BATTERY 2/2/2010
935 CONCORDE RG131 BATTERY 2/2/2010
936 CONCORDE FARSG91STC BATTERY 2/2/2010
937 CONCORDE RG126 BATTERY 2/2/2010
938 CONCORDE CB24-11 BATTERY 2/2/2010
939 GILL G246AT BATTERY 2/2/2010
940 GILL G-25M BATTERY 2/2/2010
941 GILL G-250S BATTERY 2/2/2010
942 GILL G-25S BATTERY 2/2/2010
943 GILL 7639-25 BATTERY 2/2/2010
944 GILL 7639-34 BATTERY 2/2/2010
945 GILL 7638-36 BATTERY 2/2/2010
946 GILL 7638-53 BATTERY 2/2/2010
947 GILL G-639ES BATTERY 2/2/2010
948 MARATHON 31810-001 TEMP PROBE 2/2/2010
949 MARATHON 31920-002 TEMP PROBE 2/2/2010
950 MARATHON 32072-001 TEMP PROBE 2/2/2010
951 MARATHON 32075-001 TEMP PROBE 2/2/2010
952 MARATHON 32140-001 TEMP PROBE 2/2/2010
953 MARATHON 32140-002 TEMP PROBE 2/2/2010
954 MARATHON 32288-001 TEMP PROBE 2/2/2010
955 MARATHON 32470-001 TEMP PROBE 2/2/2010
956 MARATHON 32470-002 TEMP PROBE 2/2/2010
957 MARATHON 32532-001 TEMP PROBE 2/2/2010
958 MARATHON 32532-002 TEMP PROBE 2/2/2010
959 MARATHON 32704-001 TEMP PROBE 2/2/2010
960 MARATHON 32899-001 TEMP PROBE 2/2/2010
961 MARATHON 32899-002 TEMP PROBE 2/2/2010
962 CONCORDE RG128 BATTERY 2/2/2010
963 CONCORDE RG380/44LS BATTERY 2/2/2010
964 CONCORDE RG25XC BATTERY 2/2/2010
965 CONCORDE CB25 BATTERY 2/2/2010
966 CONCORDE CB25XC BATTERY 2/2/2010
967 CONCORDE RG145-2 BATTERY 2/2/2010
968 CONCORDE RG25XC BATTERY 2/2/2010
969 CONCORDE RG24-11M BATTERY 2/2/2010
970 CONCORDE RG407A1 BATTERY 2/2/2010
971 CONCORDE RG24-15M BATTERY 2/2/2010
972 MARATHON 29432-004 TEMP PROBE 2/2/2010
973 MARATHON 29432-005 TEMP PROBE 2/2/2010
974 MARATHON 29432-006 TEMP PROBE 2/2/2010
975 MARATHON 29432-007 TEMP PROBE 2/2/2010
976 MARATHON 29432-008 TEMP PROBE 2/2/2010
977 MARATHON 29432-009 TEMP PROBE 2/2/2010
978 MARATHON 29432-010 TEMP PROBE 2/2/2010
979 MARATHON 29432-011 TEMP PROBE 2/2/2010
980 MARATHON 29432-012 TEMP PROBE 2/2/2010
981 MARATHON 29432-015 TEMP PROBE 2/2/2010
982 MARATHON 29432-016 TEMP PROBE 2/2/2010
983 MARATHON 29432-017 TEMP PROBE 2/2/2010
984 MARATHON 29432-019 TEMP PROBE 2/2/2010
985 MARATHON 29432-020 TEMP PROBE 2/2/2010
986 MARATHON 29432-022 TEMP PROBE 2/2/2010
987 MARATHON 29529-001 TEMP PROBE 2/2/2010
988 MARATHON 29529-002 TEMP PROBE 2/2/2010
989 MARATHON 29529-003 TEMP PROBE 2/2/2010
990 MARATHON 29565-003 TEMP PROBE 2/2/2010
991 MARATHON 29565-004 TEMP PROBE 2/2/2010
992 MARATHON 29573-001 TEMP PROBE 2/2/2010
993 MARATHON 29685-001 TEMP PROBE 2/2/2010
994 MARATHON 29783-001 TEMP PROBE 2/2/2010
995 MARATHON 29783-002 TEMP PROBE 2/2/2010
996 MARATHON 29817-003 TEMP PROBE 2/2/2010
997 MARATHON 30320-001 TEMP PROBE 2/2/2010
998 MARATHON 30400-001 TEMP PROBE 2/2/2010
999 MARATHON 30465-002 TEMP PROBE 2/2/2010
1000 MARATHON 30727-001 TEMP PROBE 2/2/2010
1001 MARATHON 30920-001 TEMP PROBE 2/2/2010
1002 MARATHON 30920-002 TEMP PROBE 2/2/2010
1003 MARATHON 30920-003 TEMP PROBE 2/2/2010
1004 MARATHON 30920-004 TEMP PROBE 2/2/2010
1005 MARATHON 30920-008 TEMP PROBE 2/2/2010
1006 MARATHON 30921-001 TEMP PROBE 2/2/2010
1007 MARATHON 30921-002 TEMP PROBE 2/2/2010
1008 MARATHON 30921-003 TEMP PROBE 2/2/2010
1009 MARATHON 30921-004 TEMP PROBE 2/2/2010
1010 MARATHON 30921-005 TEMP PROBE 2/2/2010
1011 MARATHON 30921-006 TEMP PROBE 2/2/2010
1012 MARATHON 31023-001 TEMP PROBE 2/2/2010
1013 MARATHON 31023-002 TEMP PROBE 2/2/2010
1014 MARATHON 31023-003 TEMP PROBE 2/2/2010
1015 MARATHON 31023-005 TEMP PROBE 2/2/2010
1016 MARATHON 31023-006 TEMP PROBE 2/2/2010
1017 MARATHON 31029-001 TEMP PROBE 2/2/2010
1018 MARATHON 31044-001 TEMP PROBE 2/2/2010
1019 MARATHON 019656-000 TEMP PROBE 2/2/2010
1020 MARATHON 019271-000 TEMP PROBE 2/2/2010
1021 MARATHON 023808-500 TEMP PROBE 2/2/2010
1022 MARATHON 414182 TEMP PROBE 2/2/2010
1023 MARATHON 415280 TEMP PROBE 2/2/2010
1024 MARATHON 116051 TEMP PROBE 2/2/2010
1025 MARATHON 115807 TEMP PROBE 2/2/2010
1026 MARATHON 166854 TEMP PROBE 2/2/2010
1027 SAFT 410718 TEMP PROBE 2/2/2010
1028 SAFT 411124 TEMP PROBE 2/2/2010
1029 SAFT 414093 TEMP PROBE 2/2/2010
1030 SAFT 165226 TEMP PROBE 2/2/2010
1031 SAFT 413031 TEMP PROBE 2/2/2010
1032 SAFT 411345 TEMP PROBE 2/2/2010
1033 SAFT 414890 TEMP PROBE 2/2/2010
1034 SAFT 413049 TEMP PROBE 2/2/2010
1035 SAFT 161297 TEMP PROBE 2/2/2010
1036 SAFT 410922 TEMP PROBE 2/2/2010
1037 SAFT 416103 TEMP PROBE 2/2/2010
1038 SAFT 414139 TEMP PROBE 2/2/2010
1039 SAFT 412757 TEMP PROBE 2/2/2010
1040 SAFT 414976 TEMP PROBE 2/2/2010
1041 SAFT 411157 TEMP PROBE 2/2/2010
1042 SAFT 162901 TEMP PROBE 2/2/2010
1043 SAFT 410156 TEMP PROBE 2/2/2010
1044 SAFT 413469 TEMP PROBE 2/2/2010
1045 MARATHON 28900-001 TEMP PROBE 2/2/2010
1046 MARATHON 28900-002 TEMP PROBE 2/2/2010
1047 MARATHON 28900-005 TEMP PROBE 2/2/2010
1048 MARATHON 28900-006 TEMP PROBE 2/2/2010
1049 MARATHON 29084-001 TEMP PROBE 2/2/2010
1050 MARATHON 29084-004 TEMP PROBE 2/2/2010
1051 MARATHON 29084-005 TEMP PROBE 2/2/2010
1052 MARATHON 29084-006 TEMP PROBE 2/2/2010
1053 MARATHON 29084-007 TEMP PROBE 2/2/2010
1054 MARATHON 29090-001 TEMP PROBE 2/2/2010
1055 MARATHON 29170-001 TEMP PROBE 2/2/2010
1056 MARATHON 29170-003 TEMP PROBE 2/2/2010
1057 MARATHON 29283-001 TEMP PROBE 2/2/2010
1058 MARATHON 29376-001 TEMP PROBE 2/2/2010
1059 MARATHON 29376-005 TEMP PROBE 2/2/2010
1060 MARATHON 29376-007 TEMP PROBE 2/2/2010
1061 MARATHON 29432-003 TEMP PROBE 2/2/2010
1062 SAFT 161297 TEMP PROBE 2/2/2010
1063 SAFT 411980 TEMP PROBE 2/2/2010
1064 SAFT 411991 TEMP PROBE 2/2/2010
1065 SAFT 415512 TEMP PROBE 2/2/2010
1066 SAFT 023697-000 TEMP PROBE 2/2/2010
1067 SAFT 018652-000 TEMP PROBE 2/2/2010
1068 SAFT 166578 TEMP PROBE 2/2/2010
1069 SAFT 413330 TEMP PROBE 2/2/2010
1070 SAFT 413032 TEMP PROBE 2/2/2010
1071 SAFT 161057 TEMP PROBE 2/2/2010
1072 SAFT 019757-000 TEMP PROBE 2/2/2010
1073 SAFT 411758 TEMP PROBE 2/2/2010
1074 SAFT 412160 TEMP PROBE 2/2/2010
1075 SAFT 413033 TEMP PROBE 2/2/2010
1076 SAFT 023627-000 TEMP PROBE 2/2/2010
1077 SAFT 412299 TEMP PROBE 2/2/2010
1078 SAFT 413351 TEMP PROBE 2/2/2010
1079 SAFT 017753-000/ 117497 TEMP PROBE 2/2/2010
1080 SAFT 413011 TEMP PROBE 2/2/2010
1081 SAFT 413339 TEMP PROBE 2/2/2010
1082 SAFT 413084 TEMP PROBE 2/2/2010
1083 SAFT 024976-500 TEMP PROBE 2/2/2010
1084 SAFT 415378 TEMP PROBE 2/2/2010
1085 SAFT 415137 TEMP PROBE 2/2/2010
1086 SAFT 412759 TEMP PROBE 2/2/2010
1087 SAFT 416275 TEMP PROBE 2/2/2010
1088 SAFT 415826 TEMP PROBE 2/2/2010
1089 SAFT 415445 TEMP PROBE 2/2/2010
1090 SAFT 413175 TEMP PROBE 2/2/2010
1091 SAFT 018582-000 TEMP PROBE 2/2/2010
1092 SAFT 018581-000 TEMP PROBE 2/2/2010
1093 SAFT 019493-000 TEMP PROBE 2/2/2010
1094 SAFT 023172-000 TEMP PROBE 2/2/2010
1095 SAFT 021173-500 TEMP PROBE 2/2/2010
1096 MARATHON 37615-001 CELL 2/2/2010
1097 MARATHON 37615-001/ 10S113 CELL 2/2/2010
1098 MARATHON 37194-002/ 10S113 CELL 2/2/2010
1099 MARATHON 39093-001/ 24S113 CELL 2/2/2010
1100 MARATHON 38918-004/ S103T CELL 2/2/2010
1101 MARATHON 31275-01C/ 18H120 CELL 2/2/2010
1102 MARATHON 38451-006/ 6S113 CELL 2/2/2010
1103 MARATHON 38451-002/ 10S113 CELL 2/2/2010
1104 MARATHON 16962-24C CELL 2/2/2010
1105 MARATHON 24805-04C/ 12M220C CELL 2/2/2010
1106 MARATHON 27725-003/ 6H120 CELL 2/2/2010
1107 MARATHON 19476-001/ 81H120 CELL 2/2/2010
1108 SAFT 019271-000 CELL 2/2/2010
1109 SAFT 023258-000/ 412757 CELL 2/2/2010
1110 SAFT 413032 CELL 2/2/2010
1111 SAFT VHP430KH-3SQ CELL 2/2/2010
1112 SAFT VP400KH-MS CELL 2/2/2010
1113 SAFT HV01.1 CELL 2/2/2010
1114 SAFT VO3KHB CELL 2/2/2010
1115 SAFT K07.5D CELL 2/2/2010
1116 SAFT VHP450KH CELL 2/2/2010
1117 SAFT VO40KHCVH400KA CELL 2/2/2010
1118 SAFT SC24H120 CELL 2/2/2010
1119 SAFT 60M220 CELL 2/2/2010
1120 SAFT 18534-001 CELL 2/2/2010
1121 MARATHON 3H120C CELL 2/2/2010
1122 MARATHON 19097-001 CELL 2/2/2010
1123 MARATHON 3H1200 CELL 2/2/2010
1124 MARATHON 38H100 CELL 2/2/2010
1125 MARATHON 32638-001 CELL 2/2/2010
1126 MARATHON 19540-002 CELL 2/2/2010
1127 MARATHON 24ME220AIRLC CELL 2/2/2010
1128 MARATHON 29251 CELL 2/2/2010
1129 MARATHON 32638-002 CELL 2/2/2010
1130 MARATHON 16853-001 CELL 2/2/2010
1131 MARATHON 16879-02C/ 65H132C CELL 2/2/2010
1132 MARATHON 32515-001 CELL 2/2/2010
1133 MARATHON A16962-07C/ 24M220CR CELL 2/2/2010
1134 MARATHON 12H120 CELL 2/2/2010
1135 MARATHON 2H120C CELL 2/2/2010
1136 MARATHON 121482-001 CELL 2/2/2010
1137 MARATHON 28003-01C CELL 2/2/2010
1138 MARATHON 26M220 CELL 2/2/2010
1139 MARATHON 28033-001/ 24ME220 CELL 2/2/2010
1140 MARATHON 24805-004 CELL 2/2/2010
1141 MARATHON 38448-005/ 24S103 CELL 2/2/2010
1142 AERO DESIGN AD1606-1/ 1606-1 BATTERY 2/2/2010
1143 AERO DESIGN AD1756/ 1756 BATTERY 2/2/2010
1144 AERO DESIGN AD1756-3/ 1756-3 BATTERY 2/2/2010
1145 AERO DESIGN AD2376/ 2376 BATTERY 2/2/2010
1146 AERO DESIGN AD2376-4/ 2376-4 BATTERY 2/2/2010
1147 AERO DESIGN AD23180/ 23180 BATTERY 2/2/2010
1148 AERO DESIGN AD23576/ 23576 BATTERY 2/2/2010
1149 AERO DESIGN AD23576-1/ 23576-1 BATTERY 2/2/2010
1150 AERO DESIGN AD23676/ 23676 BATTERY 2/2/2010
1151 AERO DESIGN AD23676-1/ 23676-1 BATTERY 2/2/2010
1152 AERO DESIGN AD2758/ 2758 BATTERY 2/2/2010
1153 AERO DESIGN AD18164/ 18164 BATTERY 2/2/2010
1154 AERO DESIGN AD18164-3/ 18164-3 BATTERY 2/2/2010
1155 AERO DESIGN AD18164-4/ 18164-4 BATTERY 2/2/2010
1156 AERO DESIGN AD401176-9/ 401176-9 BATTERY 2/2/2010
1157 AERO DESIGN AD40176/ 40176 BATTERY 2/2/2010
1158 AERO DESIGN AD40176-4/ 40176-4 BATTERY 2/2/2010
1159 AERO DESIGN AD40176-7/ 40176-7 BATTERY 2/2/2010
1160 AERO DESIGN AD4076/ 4076 BATTERY 2/2/2010
1161 AERO DESIGN AD4076-1/ 4076-1 BATTERY 2/2/2010
1162 AERO DESIGN AD4076-2/ 4076-2 BATTERY 2/2/2010
1163 AERO DESIGN AD4076-3/ 4076-3 BATTERY 2/2/2010
1164 AERO DESIGN AD4076-4/ 4076-4 BATTERY 2/2/2010
1165 AERO DESIGN AD4076-5/ 4076-5 BATTERY 2/2/2010
1166 AERO DESIGN AD4076-6/ 4076-6 BATTERY 2/2/2010
1167 AERO DESIGN AD4076-7/ 4076-7 BATTERY 2/2/2010
1168 AERO DESIGN AD4076-8/ 4076-8 BATTERY 2/2/2010
1169 AERO DESIGN AD4076-9/ 4076-9 BATTERY 2/2/2010
1170 AERO DESIGN AD4076-10/ 4076-10 BATTERY 2/2/2010
1171 AERO DESIGN AD4076-11/ 4076-11 BATTERY 2/2/2010
1172 AERO DESIGN AD4076-12/ 4076-12 BATTERY 2/2/2010
1173 AERO DESIGN AD4076-13/ 4076-13 BATTERY 2/2/2010
1174 AERO DESIGN AD4076-14/ 4076-14 BATTERY 2/2/2010
1175 AERO DESIGN AD4076-15/ 4076-15 BATTERY 2/2/2010
1176 AERO DESIGN AD40576/ 40576 BATTERY 2/2/2010
1177 AERO DESIGN AD40676/ 40676 BATTERY 2/2/2010
1178 AERO DESIGN AD40776/ 40776 BATTERY 2/2/2010
1179 AERO DESIGN AD40678-2/ 40678-2 BATTERY 2/2/2010
1180 AERO DESIGN AD4078/ 4078 BATTERY 2/2/2010
1181 AERO DESIGN AD4078-2/ 4078-2 BATTERY 2/2/2010
1182 AERO DESIGN AD4078-3/ 4078-3 BATTERY 2/2/2010
1183 AERO DESIGN AD4078-6/ 4078-6 BATTERY 2/2/2010
1184 AERO DESIGN AD4078-7/ 4078-7 BATTERY 2/2/2010
1185 AERO DESIGN AD4078-10/ 4078-10 BATTERY 2/2/2010
1186 AERO DESIGN AD4078-11/ 4078-11 BATTERY 2/2/2010
1187 AERO DESIGN AD4078-14/ 4078-14 BATTERY 2/2/2010
1188 AERO DESIGN AD4078-19/ 4078-19 BATTERY 2/2/2010
1189 AERO DESIGN AD4078-24/ 4078-24 BATTERY 2/2/2010
1190 AERO DESIGN AD-BTSP-4445L/BTSP-4445L BATTERY 2/2/2010
1191 AERO DESIGN AD4579/ 4579 BATTERY 2/2/2010
1192 AERO DESIGN AD43BO34LB03/43BO34LB03 BATTERY 2/2/2010
1193 AERO DESIGN AD43BO50LB01/43BO50LB01 BATTERY 2/2/2010
1194 SAFT 26508 BATTERY 2/2/2010
1195 SAFT A407CH-3 BATTERY 2/2/2010
1196 SAFT 40176 BATTERY 2/2/2010
1197 SAFT 26108-5 BATTERY 2/2/2010
1198 SAFT 25106 BATTERY 2/2/2010
1199 SAFT 274CH2 BATTERY 2/2/2010
1200 MARATHON 29069-004/ KCA-727-20CR BATTERY 2/2/2010
1201 MARATHON 29069-003/ KCA-727-20C BATTERY 2/2/2010
1202 MARATHON 29069-002/ KCA-727-20 BATTERY 2/2/2010
1203 MARATHON 29069-001/ KCA-727 BATTERY 2/2/2010
1204 MARATHON 28111-003/ CA-27-20 BATTERY 2/2/2010
1205 MARATHON 28111-002/ CA-27 BATTERY 2/2/2010
1206 MARATHON 25582-005/ CA-727-20C BATTERY 2/2/2010
1207 MARATHON 25582-004/ CA-727-9 BATTERY 2/2/2010
1208 MARATHON 25582-003/ CA-727-20 BATTERY 2/2/2010
1209 MARATHON 32749-001/ M3-1700L BATTERY 2/2/2010
1210 MARATHON 30135-002/ SP-1700L BATTERY 2/2/2010
1211 MARATHON 28277-001/ CA-737 BATTERY 2/2/2010
1212 MARATHON 30128-001/ SP-401 BATTERY 2/2/2010
1213 MARATHON 24535-015/ CA-5H BATTERY 2/2/2010
1214 MARATHON 30669-001/ TSP-46-1 BATTERY 2/2/2010
1215 MARATHON 32875-001/ M3-44-11 BATTERY 2/2/2010
1216 MARATHON 32995-002/ M3-23-1 BATTERY 2/2/2010
1217 MARATHON 28974-001/ CA-9-4-20 BATTERY 2/2/2010
1218 MARATHON 31392-002/ TSP-940 BATTERY 2/2/2010
1219 MARATHON 2936501C/ CA-1700 BATTERY 2/2/2010
1220 MARATHON 29822-001/ STCA-400A BATTERY 2/2/2010
1221 MARATHON 29423-001/ STCA-400 BATTERY 2/2/2010
1222 MARATHON 32324-001/ TSP-40204B BATTERY 2/2/2010
1223 MARATHON 26934-002/ MA-9 BATTERY 2/2/2010
1224 MARATHON 32864-001/ TCA-109L-1 BATTERY 2/2/2010
1225 MARATHON 32862-001/ TSP-409L-1 BATTERY 2/2/2010
1226 MARATHON 31618-001/ STSP-901 BATTERY 2/2/2010
1227 MARATHON 31992-001/ STSP-444 BATTERY 2/2/2010
1228 MARATHON 31821-001/ TPSP-941 BATTERY 2/2/2010
1229 MARATHON 31817-001/ BTCA-9-20 BATTERY 2/2/2010
1230 MARATHON 29327-002/ CA-400A BATTERY 2/2/2010
1231 MARATHON 31013-001/ GSP-400 BATTERY 2/2/2010
1232 MARATHON 29403-001/ CA154-5 BATTERY 2/2/2010
1233 MARATHON 24535-009/ CA-5 BATTERY 2/2/2010
1234 MARATHON 33006-001/ 20-60M3X100 BATTERY 2/2/2010
1235 MARATHON 25696-004/ MA-11H BATTERY 2/2/2010
1236 SAFT VO40KH-C CELL 2/2/2010
1237 AERO DESIGN AD-VP160KH/ VP160KH BATTERY 2/2/2010
1238 AERO DESIGN AD-VP160KM/ VP160KM BATTERY 2/2/2010
1239 AERO DESIGN AD-VP170KH/ VP230KH BATTERY 2/2/2010
1240 AERO DESIGN AD-VP230KH/ VP230KH BATTERY 2/2/2010
1241 AERO DESIGN AD-VHP230KA-3/ VHP230KA-3 BATTERY 2/2/2010
1242 AERO DESIGN AD-3030-1/ 3030-1 BATTERY 2/2/2010
1243 AERO DESIGN AD-VP400KH/ VP400KH BATTERY 2/2/2010
1244 AERO DESIGN AD-VP400KHAC/ VP400KHAC BATTERY 2/2/2010
1245 AERO DESIGN AD-VHP430KH-3/ VHP430KH-3 BATTERY 2/2/2010
1246 AERO DESIGN AD-VHP450KA-1/ VHP450KA-1 BATTERY 2/2/2010
1247 AERO DESIGN AD-43BO34AC14-2/43BO34AC14-2 BATTERY 2/2/2010
1248 AERO DESIGN AD-43BO50AC01-2/43BO50AC01-2 BATTERY 2/2/2010
1249 SAFT CVH180KH-SQ CELL 2/2/2010
1250 SAFT CVH441KH-SQ CELL 2/2/2010
1251 SAFT CVH400KH-SQ CELL 2/2/2010
1252 SAFT CVH150KH CELL 2/2/2010
1253 SAFT VO25KA-C CELL 2/2/2010
1254 SAFT VP250KH CELL 2/2/2010
1255 SAFT VO25KA CELL 2/2/2010
1256 SAFT VHP260KH-3 CELL 2/2/2010
1257 SAFT VHP230KA3 CELL 2/2/2010
1258 SAFT CVH180SK CELL 2/2/2010
1259 SAFT VP160KH-SQ CELL 2/2/2010
1260 SAFT VP160KM CELL 2/2/2010
1261 SAFT VO16KH CELL 2/2/2010
1262 SAFT VHP270KH-3-SQKH-3 CELL 2/2/2010
1263 SAFT VOEC40KH CELL 2/2/2010
1264 SAFT VP120KHMS CELL 2/2/2010
1265 SAFT VP65K CELL 2/2/2010
1266 MARATHON 31092-001/ TSTSP-940 BATTERY 2/2/2010
1267 SAFT CVH440KH CELL 2/2/2010
1268 SAFT VHP170KH-3-SQ CELL 2/2/2010
1269 SAFT VHP270KH-3-SQ CELL 2/2/2010
1270 SAFT VP160KM-SQ CELL 2/2/2010
1271 SAFT VO80KH CELL 2/2/2010
1272 SAFT CVD34KH CELL 2/2/2010
1273 SAFT VHP260KH-3-SQ CELL 2/2/2010
1274 SAFT VXP310KH CELL 2/2/2010
1275 SAFT VO23KH-SQ CELL 2/2/2010
1276 SAFT CVH271KH CELL 2/2/2010
1277 SAFT VP400KH-SQ CELL 2/2/2010
1278 SAFT VP380KH CELL 2/2/2010
1279 SAFT VO40KH-3 CELL 2/2/2010
1280 SAFT CVH180KA CELL 2/2/2010
1281 SAFT 31810-001 TEMP PROBE 2/2/2010
1282 SAFT 31920-002 TEMP PROBE 2/2/2010
1283 SAFT 32072-001 TEMP PROBE 2/2/2010
1284 SAFT 32075-001 TEMP PROBE 2/2/2010
1285 SAFT 32140-001 TEMP PROBE 2/2/2010
1286 SAFT 32140-002 TEMP PROBE 2/2/2010
1287 SAFT 32288-001 TEMP PROBE 2/2/2010
1288 SAFT 32470-001 TEMP PROBE 2/2/2010
1289 SAFT 32470-002 TEMP PROBE 2/2/2010
1290 SAFT 32532-001 TEMP PROBE 2/2/2010
1291 SAFT 32532-002 TEMP PROBE 2/2/2010
1292 SAFT 32704-001 TEMP PROBE 2/2/2010
1293 SAFT 32899-001 TEMP PROBE 2/2/2010
1294 SAFT 32899-002 TEMP PROBE 2/2/2010
1295 CONCORDE RG128 BATTERY 2/2/2010
1296 CONCORDE RG25XC BATTERY 2/2/2010
1297 CONCORDE CB25 BATTERY 2/2/2010
1298 CONCORDE CB25XC BATTERY 2/2/2010
1299 CONCORDE RG145-2 BATTERY 2/2/2010
1300 CONCORDE RG25 BATTERY 2/2/2010
1301 CONCORDE RG24-11M BATTERY 2/2/2010
1302 CONCORDE RG24-15M BATTERY 2/2/2010
1303 GILL G-641S BATTERY 2/2/2010
  • undrooping